GFSSE_prec_pwat_159.txt.gz
Precipitable_Water
1.50 1.62 1.65 1.65 1.63 1.58 1.51 1.44 1.36 1.31 1.32 1.25 1.21 1.17 1.18 1.19 1.19 1.16 1.12 1.12 1.13 1.17 1.17 1.19 1.23 1.27 1.31 1.39 1.44 1.49 1.48 1.44 1.47 1.56 1.56 1.58 1.60 1.55 1.54 1.59 1.58 1.62 1.61
1.56 1.62 1.60 1.60 1.60 1.57 1.52 1.48 1.41 1.35 1.34 1.28 1.21 1.17 1.17 1.19 1.19 1.17 1.13 1.10 1.15 1.17 1.18 1.22 1.24 1.27 1.30 1.32 1.37 1.44 1.43 1.44 1.49 1.53 1.59 1.61 1.59 1.58 1.56 1.57 1.58 1.63 1.66
1.43 1.50 1.52 1.54 1.53 1.54 1.52 1.48 1.42 1.37 1.36 1.32 1.24 1.20 1.19 1.19 1.21 1.21 1.18 1.15 1.18 1.20 1.17 1.19 1.24 1.28 1.31 1.32 1.32 1.34 1.38 1.46 1.52 1.58 1.66 1.61 1.62 1.59 1.59 1.62 1.67 1.68 1.70
1.41 1.41 1.42 1.45 1.51 1.52 1.51 1.49 1.45 1.43 1.39 1.34 1.27 1.20 1.19 1.20 1.22 1.22 1.21 1.20 1.20 1.18 1.17 1.21 1.24 1.24 1.25 1.27 1.27 1.33 1.41 1.49 1.56 1.64 1.61 1.59 1.56 1.58 1.60 1.62 1.66 1.66 1.72
1.39 1.41 1.40 1.38 1.44 1.51 1.52 1.50 1.48 1.48 1.44 1.40 1.31 1.25 1.20 1.19 1.21 1.23 1.23 1.23 1.25 1.18 1.18 1.19 1.24 1.25 1.24 1.25 1.29 1.37 1.45 1.53 1.60 1.64 1.61 1.60 1.61 1.58 1.57 1.60 1.65 1.68 1.71
1.26 1.31 1.35 1.40 1.41 1.40 1.46 1.46 1.47 1.47 1.48 1.47 1.40 1.32 1.24 1.19 1.19 1.21 1.22 1.25 1.25 1.20 1.17 1.19 1.22 1.22 1.22 1.25 1.29 1.39 1.47 1.53 1.62 1.66 1.62 1.62 1.60 1.60 1.59 1.63 1.69 1.64 1.62
1.10 1.16 1.22 1.24 1.30 1.39 1.44 1.44 1.47 1.48 1.46 1.44 1.40 1.34 1.32 1.31 1.27 1.25 1.25 1.27 1.29 1.24 1.17 1.16 1.21 1.23 1.20 1.22 1.28 1.38 1.46 1.52 1.59 1.60 1.60 1.59 1.58 1.59 1.62 1.64 1.63 1.59 1.57
0.93 0.91 0.95 0.99 1.03 1.17 1.28 1.38 1.42 1.43 1.47 1.45 1.39 1.31 1.27 1.29 1.34 1.33 1.31 1.32 1.33 1.26 1.21 1.18 1.19 1.23 1.25 1.22 1.24 1.33 1.42 1.51 1.56 1.57 1.59 1.58 1.58 1.60 1.63 1.69 1.68 1.64 1.65
0.83 0.76 0.72 0.74 0.80 0.89 1.04 1.19 1.31 1.39 1.39 1.39 1.38 1.33 1.26 1.21 1.23 1.33 1.41 1.36 1.34 1.33 1.28 1.23 1.20 1.21 1.23 1.23 1.22 1.26 1.36 1.45 1.54 1.60 1.62 1.58 1.59 1.58 1.66 1.73 1.70 1.70 1.67
0.71 0.66 0.64 0.64 0.70 0.78 0.80 0.81 0.97 1.14 1.27 1.27 1.27 1.28 1.27 1.25 1.21 1.21 1.31 1.40 1.39 1.34 1.32 1.30 1.25 1.22 1.22 1.21 1.20 1.23 1.30 1.38 1.52 1.57 1.65 1.61 1.56 1.54 1.64 1.75 1.73 1.76 1.66
0.49 0.47 0.48 0.48 0.51 0.54 0.52 0.54 0.57 0.65 0.72 0.90 1.07 1.17 1.23 1.28 1.31 1.26 1.20 1.23 1.32 1.38 1.33 1.31 1.32 1.27 1.24 1.21 1.19 1.18 1.24 1.33 1.44 1.50 1.59 1.64 1.56 1.51 1.65 1.78 1.75 1.77 1.68
0.41 0.43 0.44 0.47 0.46 0.46 0.44 0.45 0.45 0.47 0.48 0.49 0.54 0.65 0.81 1.00 1.17 1.24 1.28 1.23 1.18 1.25 1.34 1.35 1.33 1.33 1.28 1.25 1.21 1.19 1.17 1.24 1.32 1.41 1.49 1.58 1.57 1.49 1.58 1.70 1.78 1.78 1.73
0.43 0.46 0.48 0.48 0.46 0.40 0.39 0.39 0.38 0.39 0.39 0.40 0.41 0.41 0.43 0.49 0.63 0.90 1.18 1.26 1.24 1.22 1.21 1.31 1.35 1.36 1.31 1.26 1.21 1.17 1.17 1.17 1.23 1.33 1.43 1.50 1.54 1.49 1.57 1.63 1.78 1.82 1.73
0.43 0.46 0.48 0.48 0.41 0.42 0.41 0.39 0.38 0.35 0.34 0.33 0.34 0.36 0.35 0.36 0.38 0.41 0.53 0.87 1.22 1.28 1.20 1.21 1.27 1.31 1.32 1.30 1.24 1.19 1.16 1.14 1.16 1.24 1.30 1.45 1.49 1.48 1.54 1.63 1.75 1.79 1.74
0.41 0.45 0.46 0.46 0.42 0.41 0.40 0.39 0.37 0.35 0.33 0.33 0.34 0.36 0.36 0.34 0.34 0.35 0.37 0.40 0.56 0.94 1.26 1.22 1.21 1.22 1.27 1.29 1.25 1.21 1.18 1.14 1.16 1.19 1.25 1.35 1.45 1.48 1.48 1.61 1.76 1.80 1.75
0.42 0.43 0.45 0.44 0.43 0.41 0.38 0.39 0.38 0.36 0.35 0.34 0.35 0.36 0.38 0.38 0.38 0.37 0.37 0.36 0.37 0.46 0.76 1.07 1.24 1.23 1.21 1.23 1.24 1.22 1.19 1.19 1.18 1.17 1.21 1.27 1.44 1.47 1.46 1.62 1.68 1.75 1.76
0.43 0.43 0.42 0.42 0.43 0.41 0.40 0.40 0.39 0.38 0.37 0.35 0.36 0.38 0.39 0.40 0.40 0.40 0.39 0.39 0.40 0.40 0.40 0.60 0.89 1.21 1.23 1.25 1.17 1.25 1.25 1.22 1.18 1.17 1.18 1.22 1.38 1.49 1.46 1.55 1.62 1.67 1.72
0.41 0.40 0.41 0.42 0.42 0.40 0.39 0.39 0.39 0.40 0.39 0.39 0.38 0.40 0.41 0.43 0.44 0.44 0.43 0.43 0.45 0.44 0.43 0.41 0.52 0.79 1.07 1.16 1.19 1.23 1.28 1.26 1.19 1.17 1.19 1.17 1.26 1.46 1.48 1.49 1.57 1.60 1.78
0.40 0.38 0.38 0.40 0.38 0.38 0.39 0.39 0.40 0.40 0.39 0.40 0.40 0.40 0.43 0.44 0.47 0.46 0.46 0.47 0.50 0.47 0.47 0.46 0.43 0.52 0.73 0.97 1.13 1.22 1.29 1.28 1.23 1.20 1.14 1.14 1.18 1.41 1.50 1.47 1.53 1.57 1.63
0.38 0.37 0.37 0.37 0.38 0.39 0.39 0.39 0.39 0.38 0.39 0.40 0.39 0.40 0.43 0.44 0.46 0.46 0.47 0.48 0.49 0.46 0.47 0.49 0.48 0.47 0.55 0.72 1.02 1.14 1.25 1.29 1.30 1.20 1.12 1.16 1.15 1.32 1.48 1.49 1.51 1.50 1.55
0.35 0.35 0.35 0.35 0.37 0.38 0.36 0.34 0.34 0.32 0.35 0.37 0.39 0.39 0.42 0.44 0.47 0.47 0.48 0.49 0.51 0.48 0.46 0.46 0.49 0.50 0.47 0.67 0.78 0.98 1.18 1.26 1.29 1.24 1.18 1.15 1.14 1.27 1.41 1.48 1.50 1.45 1.53
0.34 0.35 0.36 0.36 0.37 0.38 0.37 0.37 0.36 0.35 0.36 0.37 0.38 0.37 0.41 0.44 0.46 0.47 0.48 0.49 0.52 0.52 0.52 0.50 0.46 0.45 0.51 0.56 0.64 0.76 0.78 1.06 1.15 1.24 1.25 1.14 1.13 1.24 1.31 1.41 1.49 1.48 1.48
0.35 0.35 0.36 0.37 0.38 0.38 0.38 0.37 0.35 0.35 0.35 0.35 0.35 0.35 0.38 0.42 0.46 0.48 0.50 0.51 0.53 0.56 0.56 0.56 0.56 0.50 0.45 0.54 0.65 0.71 0.67 0.80 1.01 1.12 1.22 1.19 1.14 1.15 1.28 1.34 1.41 1.45 1.49
0.35 0.36 0.37 0.37 0.37 0.37 0.38 0.35 0.33 0.31 0.30 0.34 0.34 0.35 0.37 0.42 0.44 0.46 0.48 0.49 0.52 0.57 0.59 0.62 0.64 0.60 0.57 0.47 0.58 0.70 0.91 0.88 1.07 0.88 1.11 1.21 1.19 1.13 1.20 1.30 1.33 1.39 1.46
0.37 0.37 0.37 0.38 0.38 0.38 0.37 0.37 0.35 0.33 0.35 0.36 0.34 0.32 0.34 0.37 0.43 0.46 0.48 0.50 0.53 0.55 0.60 0.66 0.68 0.66 0.65 0.57 0.54 0.58 0.62 0.79 0.93 1.07 0.89 1.01 1.18 1.17 1.20 1.26 1.31 1.34 1.41
0.39 0.39 0.39 0.39 0.38 0.38 0.38 0.38 0.36 0.35 0.34 0.32 0.31 0.30 0.32 0.35 0.38 0.43 0.47 0.50 0.51 0.55 0.60 0.67 0.70 0.70 0.67 0.67 0.64 0.61 0.60 0.57 0.69 0.90 1.00 1.04 1.05 1.11 1.18 1.23 1.28 1.31 1.34

GFSSE_prec_pwat_162.txt.gz
Precipitable_Water
1.52 1.64 1.66 1.68 1.66 1.61 1.54 1.48 1.39 1.34 1.30 1.29 1.27 1.21 1.18 1.18 1.18 1.13 1.10 1.08 1.13 1.20 1.20 1.19 1.22 1.27 1.29 1.31 1.37 1.42 1.49 1.46 1.41 1.49 1.51 1.53 1.53 1.52 1.50 1.54 1.55 1.62 1.61
1.56 1.56 1.55 1.60 1.60 1.57 1.54 1.50 1.44 1.37 1.31 1.26 1.27 1.25 1.23 1.21 1.19 1.18 1.14 1.13 1.15 1.18 1.20 1.21 1.22 1.24 1.28 1.30 1.32 1.36 1.37 1.37 1.41 1.49 1.55 1.57 1.63 1.57 1.55 1.52 1.56 1.66 1.62
1.45 1.52 1.52 1.52 1.53 1.55 1.54 1.52 1.49 1.44 1.37 1.33 1.28 1.25 1.23 1.21 1.19 1.19 1.19 1.18 1.19 1.18 1.18 1.20 1.23 1.26 1.27 1.27 1.30 1.33 1.34 1.37 1.45 1.54 1.61 1.65 1.68 1.53 1.52 1.56 1.59 1.62 1.66
1.42 1.45 1.45 1.47 1.52 1.54 1.58 1.55 1.52 1.49 1.46 1.42 1.38 1.32 1.27 1.22 1.21 1.19 1.18 1.19 1.21 1.20 1.18 1.18 1.25 1.26 1.25 1.22 1.23 1.28 1.37 1.43 1.49 1.58 1.65 1.62 1.56 1.58 1.55 1.57 1.60 1.66 1.72
1.35 1.39 1.40 1.42 1.45 1.46 1.46 1.51 1.53 1.52 1.49 1.46 1.42 1.39 1.34 1.29 1.26 1.25 1.24 1.21 1.24 1.21 1.20 1.19 1.22 1.24 1.21 1.19 1.22 1.29 1.38 1.47 1.54 1.58 1.70 1.61 1.62 1.60 1.59 1.60 1.61 1.67 1.73
1.27 1.27 1.26 1.33 1.36 1.39 1.43 1.44 1.46 1.48 1.47 1.47 1.44 1.40 1.35 1.31 1.29 1.26 1.25 1.25 1.28 1.26 1.22 1.19 1.20 1.24 1.20 1.18 1.20 1.28 1.38 1.46 1.52 1.62 1.68 1.63 1.61 1.62 1.54 1.58 1.63 1.69 1.68
1.17 1.17 1.11 1.10 1.14 1.24 1.34 1.38 1.39 1.42 1.45 1.46 1.43 1.38 1.33 1.29 1.29 1.28 1.26 1.26 1.26 1.30 1.27 1.23 1.22 1.24 1.21 1.19 1.19 1.23 1.33 1.42 1.48 1.64 1.61 1.59 1.61 1.58 1.57 1.62 1.62 1.61 1.62
0.98 0.97 0.93 0.88 0.93 1.06 1.17 1.28 1.37 1.39 1.39 1.40 1.41 1.38 1.32 1.26 1.25 1.28 1.29 1.28 1.29 1.30 1.24 1.23 1.25 1.27 1.25 1.22 1.20 1.19 1.25 1.34 1.44 1.53 1.57 1.62 1.64 1.55 1.56 1.60 1.63 1.61 1.59
0.90 0.82 0.79 0.78 0.82 0.83 0.84 0.96 1.09 1.24 1.28 1.33 1.34 1.31 1.29 1.27 1.24 1.25 1.31 1.35 1.32 1.27 1.27 1.23 1.22 1.26 1.27 1.26 1.23 1.20 1.20 1.26 1.32 1.53 1.59 1.62 1.64 1.57 1.58 1.58 1.69 1.68 1.63
0.78 0.72 0.66 0.64 0.67 0.70 0.68 0.64 0.64 0.69 0.85 1.07 1.15 1.20 1.24 1.31 1.29 1.27 1.21 1.33 1.34 1.32 1.27 1.24 1.23 1.23 1.26 1.26 1.27 1.22 1.20 1.23 1.27 1.36 1.58 1.62 1.63 1.56 1.56 1.54 1.62 1.72 1.73
0.61 0.55 0.53 0.50 0.51 0.51 0.47 0.49 0.49 0.48 0.48 0.50 0.54 0.67 0.92 1.10 1.24 1.30 1.27 1.19 1.18 1.24 1.26 1.23 1.20 1.23 1.26 1.25 1.26 1.26 1.22 1.19 1.25 1.29 1.43 1.58 1.62 1.60 1.55 1.56 1.62 1.71 1.75
0.47 0.46 0.48 0.48 0.46 0.44 0.44 0.46 0.45 0.44 0.44 0.46 0.47 0.49 0.49 0.52 0.65 0.83 1.11 1.25 1.20 1.15 1.13 1.18 1.20 1.20 1.22 1.25 1.30 1.31 1.25 1.21 1.24 1.24 1.27 1.38 1.54 1.61 1.54 1.55 1.63 1.68 1.76
0.46 0.47 0.47 0.47 0.45 0.46 0.47 0.49 0.48 0.47 0.46 0.44 0.43 0.42 0.41 0.41 0.43 0.45 0.51 0.75 1.12 1.30 1.22 1.17 1.20 1.22 1.19 1.20 1.21 1.29 1.29 1.27 1.23 1.20 1.23 1.25 1.41 1.53 1.55 1.52 1.58 1.68 1.76
0.43 0.46 0.48 0.48 0.47 0.48 0.49 0.48 0.48 0.46 0.45 0.41 0.40 0.40 0.39 0.38 0.38 0.38 0.39 0.41 0.45 0.71 1.02 1.27 1.22 1.21 1.26 1.27 1.26 1.21 1.26 1.25 1.24 1.21 1.21 1.21 1.25 1.39 1.55 1.51 1.55 1.67 1.78
0.42 0.46 0.48 0.48 0.48 0.49 0.46 0.49 0.48 0.46 0.44 0.43 0.41 0.40 0.41 0.39 0.39 0.40 0.40 0.40 0.39 0.41 0.48 0.78 1.05 1.21 1.18 1.20 1.28 1.27 1.21 1.24 1.22 1.25 1.22 1.19 1.22 1.26 1.43 1.51 1.53 1.58 1.74
0.44 0.46 0.48 0.48 0.50 0.51 0.49 0.48 0.46 0.46 0.45 0.44 0.42 0.42 0.42 0.42 0.41 0.40 0.40 0.41 0.42 0.43 0.43 0.43 0.58 0.86 1.08 1.22 1.16 1.28 1.23 1.25 1.25 1.22 1.26 1.24 1.20 1.20 1.29 1.46 1.55 1.56 1.68
0.44 0.46 0.46 0.46 0.50 0.49 0.47 0.46 0.45 0.45 0.46 0.44 0.43 0.46 0.45 0.44 0.43 0.44 0.44 0.46 0.47 0.49 0.47 0.46 0.44 0.50 0.72 1.01 1.13 1.24 1.22 1.22 1.25 1.28 1.26 1.25 1.25 1.21 1.19 1.40 1.54 1.56 1.63
0.44 0.44 0.47 0.48 0.48 0.48 0.47 0.47 0.45 0.44 0.44 0.44 0.45 0.47 0.48 0.46 0.46 0.45 0.43 0.46 0.49 0.50 0.50 0.50 0.48 0.43 0.43 0.62 0.80 1.03 1.20 1.26 1.26 1.27 1.35 1.27 1.22 1.23 1.23 1.25 1.50 1.54 1.61
0.42 0.42 0.43 0.45 0.44 0.44 0.45 0.45 0.44 0.43 0.42 0.44 0.46 0.47 0.49 0.48 0.48 0.47 0.46 0.47 0.50 0.49 0.48 0.47 0.48 0.51 0.47 0.46 0.57 0.73 0.95 1.06 1.22 1.33 1.34 1.34 1.27 1.21 1.24 1.26 1.37 1.53 1.52
0.42 0.42 0.41 0.41 0.42 0.43 0.42 0.41 0.41 0.41 0.41 0.44 0.44 0.45 0.49 0.48 0.47 0.48 0.47 0.48 0.49 0.48 0.48 0.49 0.46 0.46 0.48 0.49 0.48 0.52 0.70 0.90 1.02 1.22 1.32 1.38 1.37 1.27 1.24 1.27 1.37 1.49 1.52
0.41 0.40 0.38 0.38 0.41 0.41 0.38 0.36 0.36 0.35 0.37 0.39 0.42 0.44 0.47 0.47 0.47 0.48 0.48 0.49 0.51 0.49 0.50 0.52 0.51 0.48 0.44 0.50 0.47 0.50 0.58 0.74 0.80 1.09 1.27 1.35 1.32 1.36 1.25 1.25 1.35 1.42 1.52
0.40 0.39 0.38 0.39 0.41 0.41 0.40 0.39 0.39 0.38 0.39 0.40 0.41 0.44 0.46 0.46 0.47 0.45 0.46 0.45 0.47 0.47 0.49 0.52 0.54 0.51 0.51 0.52 0.47 0.49 0.40 0.58 0.73 0.80 1.09 1.26 1.32 1.36 1.32 1.27 1.30 1.41 1.48
0.39 0.39 0.39 0.40 0.40 0.41 0.41 0.40 0.39 0.39 0.39 0.37 0.38 0.40 0.43 0.45 0.44 0.45 0.46 0.47 0.47 0.49 0.47 0.49 0.53 0.53 0.48 0.55 0.57 0.53 0.45 0.43 0.61 0.73 0.87 1.10 1.27 1.34 1.34 1.32 1.30 1.42 1.43
0.41 0.43 0.43 0.41 0.40 0.40 0.42 0.40 0.39 0.35 0.33 0.36 0.37 0.40 0.41 0.43 0.42 0.43 0.44 0.45 0.47 0.48 0.48 0.50 0.54 0.56 0.56 0.53 0.59 0.63 0.67 0.63 0.55 0.62 0.89 1.01 1.21 1.29 1.34 1.36 1.29 1.39 1.43
0.44 0.43 0.43 0.42 0.41 0.42 0.43 0.42 0.40 0.38 0.38 0.39 0.40 0.39 0.39 0.39 0.40 0.42 0.44 0.45 0.45 0.47 0.49 0.50 0.52 0.56 0.60 0.59 0.60 0.60 0.61 0.60 0.62 0.65 0.57 0.85 1.09 1.32 1.34 1.45 1.38 1.33 1.41
0.45 0.44 0.44 0.43 0.41 0.43 0.43 0.43 0.42 0.41 0.40 0.39 0.39 0.37 0.37 0.37 0.38 0.40 0.42 0.43 0.44 0.44 0.46 0.50 0.52 0.55 0.59 0.62 0.64 0.66 0.62 0.57 0.53 0.61 0.60 0.62 0.84 1.09 1.31 1.40 1.43 1.39 1.37

GFSSE_prec_pwat_165.txt.gz
Precipitable_Water
1.55 1.56 1.55 1.56 1.57 1.56 1.53 1.46 1.43 1.41 1.40 1.38 1.33 1.28 1.24 1.23 1.21 1.16 1.12 1.11 1.15 1.19 1.20 1.21 1.22 1.24 1.28 1.31 1.35 1.37 1.40 1.43 1.39 1.37 1.42 1.48 1.50 1.51 1.50 1.51 1.52 1.59 1.63
1.57 1.50 1.47 1.50 1.49 1.48 1.48 1.47 1.44 1.43 1.39 1.37 1.37 1.35 1.31 1.28 1.26 1.21 1.17 1.15 1.17 1.19 1.20 1.20 1.21 1.21 1.23 1.25 1.28 1.33 1.33 1.32 1.31 1.36 1.45 1.51 1.58 1.57 1.50 1.48 1.52 1.62 1.61
1.46 1.48 1.48 1.49 1.51 1.52 1.54 1.53 1.49 1.45 1.40 1.36 1.35 1.35 1.34 1.33 1.31 1.28 1.24 1.22 1.22 1.20 1.25 1.20 1.21 1.21 1.20 1.20 1.21 1.25 1.26 1.29 1.33 1.41 1.48 1.56 1.70 1.60 1.48 1.49 1.51 1.55 1.59
1.39 1.44 1.43 1.43 1.43 1.46 1.50 1.53 1.53 1.51 1.46 1.40 1.37 1.33 1.29 1.29 1.29 1.27 1.26 1.24 1.26 1.26 1.24 1.21 1.23 1.22 1.20 1.15 1.13 1.15 1.19 1.27 1.38 1.44 1.51 1.71 1.79 1.63 1.55 1.54 1.56 1.59 1.62
1.36 1.37 1.35 1.37 1.38 1.40 1.44 1.46 1.47 1.50 1.49 1.46 1.43 1.38 1.33 1.27 1.24 1.22 1.23 1.25 1.23 1.27 1.23 1.29 1.29 1.23 1.20 1.13 1.14 1.16 1.20 1.28 1.36 1.45 1.56 1.70 1.68 1.64 1.54 1.55 1.58 1.62 1.65
1.26 1.24 1.21 1.24 1.25 1.26 1.32 1.40 1.41 1.42 1.45 1.46 1.45 1.44 1.40 1.35 1.30 1.27 1.23 1.22 1.24 1.27 1.24 1.23 1.27 1.37 1.25 1.20 1.16 1.17 1.20 1.25 1.32 1.44 1.61 1.72 1.62 1.64 1.55 1.53 1.62 1.63 1.66
1.17 1.12 1.09 1.08 1.09 1.15 1.22 1.30 1.36 1.38 1.39 1.40 1.42 1.43 1.42 1.39 1.35 1.32 1.29 1.23 1.22 1.26 1.30 1.24 1.21 1.24 1.27 1.24 1.22 1.20 1.20 1.22 1.28 1.41 1.54 1.72 1.62 1.62 1.52 1.49 1.56 1.60 1.61
1.01 0.96 0.93 0.90 0.91 0.95 1.01 1.11 1.19 1.26 1.33 1.36 1.37 1.35 1.36 1.36 1.34 1.30 1.29 1.30 1.32 1.28 1.29 1.27 1.23 1.23 1.24 1.26 1.25 1.24 1.22 1.22 1.25 1.30 1.42 1.60 1.66 1.64 1.51 1.50 1.52 1.55 1.63
0.91 0.84 0.81 0.83 0.82 0.80 0.74 0.73 0.80 0.90 1.04 1.16 1.22 1.24 1.29 1.32 1.32 1.26 1.26 1.29 1.33 1.32 1.29 1.24 1.21 1.21 1.22 1.23 1.26 1.26 1.25 1.23 1.20 1.29 1.32 1.44 1.61 1.62 1.54 1.52 1.52 1.50 1.58
0.83 0.77 0.71 0.70 0.67 0.60 0.55 0.48 0.49 0.47 0.47 0.51 0.62 0.80 1.01 1.18 1.29 1.40 1.36 1.30 1.28 1.28 1.29 1.25 1.20 1.17 1.18 1.18 1.21 1.24 1.25 1.25 1.23 1.22 1.32 1.36 1.50 1.61 1.55 1.55 1.52 1.50 1.57
0.72 0.64 0.60 0.57 0.55 0.51 0.46 0.47 0.49 0.47 0.45 0.46 0.47 0.49 0.53 0.63 0.74 0.96 1.09 1.22 1.22 1.16 1.18 1.23 1.23 1.22 1.20 1.17 1.16 1.16 1.21 1.22 1.24 1.29 1.27 1.39 1.31 1.43 1.52 1.58 1.53 1.51 1.57
0.53 0.51 0.54 0.53 0.48 0.47 0.46 0.51 0.53 0.54 0.53 0.53 0.51 0.49 0.49 0.48 0.50 0.46 0.53 0.67 0.93 1.18 1.25 1.12 1.06 1.12 1.19 1.21 1.20 1.28 1.26 1.21 1.21 1.25 1.41 1.35 1.33 1.33 1.38 1.56 1.56 1.51 1.57
0.52 0.52 0.51 0.50 0.49 0.49 0.50 0.52 0.55 0.55 0.54 0.53 0.52 0.50 0.48 0.45 0.43 0.42 0.41 0.44 0.51 0.59 0.83 1.24 1.30 1.35 1.28 1.19 1.22 1.33 1.36 1.31 1.21 1.24 1.31 1.37 1.30 1.32 1.30 1.40 1.52 1.54 1.54
0.49 0.50 0.50 0.51 0.49 0.52 0.53 0.53 0.55 0.54 0.54 0.53 0.53 0.52 0.45 0.43 0.43 0.44 0.43 0.42 0.40 0.41 0.44 0.51 0.89 1.15 1.24 1.26 1.32 1.27 1.28 1.27 1.20 1.20 1.26 1.33 1.28 1.29 1.31 1.29 1.42 1.53 1.53
0.46 0.49 0.50 0.51 0.51 0.53 0.55 0.55 0.56 0.55 0.54 0.55 0.54 0.54 0.51 0.46 0.44 0.46 0.46 0.46 0.46 0.46 0.45 0.44 0.46 0.53 0.85 1.10 1.18 1.23 1.22 1.35 1.38 1.32 1.19 1.23 1.28 1.25 1.30 1.33 1.33 1.44 1.55
0.45 0.48 0.50 0.50 0.52 0.54 0.53 0.54 0.54 0.54 0.52 0.53 0.54 0.55 0.54 0.51 0.47 0.47 0.47 0.48 0.49 0.51 0.52 0.50 0.47 0.45 0.43 0.61 0.89 1.11 1.21 1.28 1.31 1.31 1.33 1.22 1.21 1.27 1.23 1.29 1.35 1.34 1.47
0.45 0.48 0.47 0.47 0.51 0.52 0.51 0.51 0.52 0.52 0.52 0.51 0.52 0.54 0.54 0.53 0.50 0.49 0.48 0.48 0.50 0.52 0.52 0.51 0.53 0.54 0.51 0.49 0.52 0.70 0.97 1.15 1.29 1.30 1.25 1.29 1.24 1.26 1.29 1.23 1.28 1.32 1.38
0.45 0.46 0.48 0.49 0.51 0.51 0.51 0.51 0.50 0.50 0.50 0.48 0.49 0.51 0.52 0.51 0.51 0.50 0.48 0.48 0.51 0.52 0.52 0.51 0.49 0.48 0.52 0.54 0.50 0.51 0.62 0.79 0.97 1.10 1.27 1.28 1.29 1.31 1.29 1.32 1.21 1.26 1.35
0.45 0.46 0.46 0.48 0.48 0.48 0.49 0.48 0.48 0.49 0.48 0.48 0.49 0.49 0.49 0.51 0.52 0.52 0.52 0.52 0.54 0.52 0.52 0.52 0.50 0.49 0.45 0.44 0.47 0.50 0.53 0.60 0.74 0.89 0.96 1.19 1.30 1.39 1.39 1.37 1.32 1.23 1.31
0.47 0.47 0.45 0.45 0.46 0.47 0.47 0.46 0.46 0.46 0.45 0.47 0.46 0.47 0.50 0.52 0.52 0.52 0.52 0.53 0.54 0.52 0.51 0.52 0.51 0.53 0.51 0.48 0.46 0.45 0.50 0.52 0.58 0.72 0.77 0.93 1.17 1.29 1.38 1.47 1.41 1.32 1.28
0.48 0.46 0.44 0.44 0.45 0.45 0.42 0.42 0.41 0.39 0.41 0.42 0.44 0.45 0.49 0.49 0.50 0.51 0.50 0.50 0.51 0.48 0.49 0.50 0.49 0.48 0.48 0.52 0.48 0.46 0.48 0.53 0.55 0.57 0.71 0.84 0.88 1.03 1.36 1.40 1.61 1.45 1.28
0.47 0.45 0.44 0.44 0.45 0.45 0.43 0.43 0.42 0.41 0.42 0.43 0.45 0.46 0.47 0.46 0.48 0.48 0.48 0.48 0.49 0.47 0.48 0.50 0.48 0.47 0.49 0.54 0.46 0.45 0.35 0.42 0.49 0.63 0.75 0.85 0.86 0.92 1.06 1.37 1.49 1.66 1.35
0.46 0.46 0.44 0.44 0.45 0.46 0.45 0.44 0.44 0.43 0.42 0.41 0.42 0.44 0.46 0.48 0.48 0.48 0.49 0.47 0.46 0.46 0.44 0.46 0.49 0.48 0.44 0.51 0.57 0.51 0.40 0.35 0.46 0.57 0.73 0.92 1.01 1.00 0.92 1.11 1.43 1.59 1.51
0.49 0.48 0.46 0.46 0.46 0.46 0.48 0.45 0.43 0.40 0.38 0.41 0.42 0.45 0.45 0.47 0.47 0.48 0.48 0.47 0.45 0.45 0.44 0.45 0.49 0.50 0.50 0.46 0.55 0.60 0.61 0.57 0.45 0.36 0.55 0.74 0.90 1.02 1.14 1.11 1.36 1.51 1.51
0.51 0.51 0.50 0.49 0.48 0.49 0.49 0.47 0.44 0.43 0.43 0.44 0.46 0.45 0.45 0.46 0.47 0.47 0.48 0.47 0.45 0.45 0.44 0.45 0.45 0.48 0.51 0.49 0.50 0.53 0.56 0.59 0.59 0.51 0.42 0.51 0.61 0.71 1.03 1.18 1.24 1.45 1.56
0.51 0.50 0.50 0.47 0.47 0.49 0.48 0.47 0.46 0.44 0.45 0.45 0.47 0.46 0.45 0.45 0.46 0.47 0.47 0.46 0.46 0.45 0.44 0.45 0.46 0.46 0.47 0.51 0.52 0.52 0.52 0.51 0.52 0.54 0.53 0.56 0.56 0.72 0.80 1.03 1.16 1.25 1.49

GFSSE_prec_pwat_168.txt.gz
Precipitable_Water
1.47 1.52 1.44 1.42 1.43 1.42 1.41 1.39 1.35 1.35 1.38 1.38 1.34 1.31 1.27 1.26 1.24 1.19 1.15 1.12 1.15 1.18 1.21 1.22 1.20 1.22 1.25 1.25 1.28 1.32 1.33 1.33 1.31 1.29 1.33 1.39 1.46 1.48 1.47 1.48 1.48 1.57 1.59
1.56 1.43 1.41 1.42 1.42 1.42 1.42 1.42 1.40 1.37 1.37 1.37 1.36 1.33 1.31 1.28 1.23 1.23 1.19 1.16 1.17 1.21 1.31 1.22 1.21 1.22 1.23 1.22 1.22 1.23 1.26 1.25 1.25 1.26 1.35 1.44 1.54 1.62 1.54 1.44 1.50 1.54 1.56
1.36 1.35 1.36 1.39 1.41 1.43 1.44 1.45 1.45 1.45 1.41 1.38 1.36 1.33 1.31 1.28 1.24 1.21 1.18 1.18 1.26 1.23 1.31 1.32 1.24 1.25 1.26 1.24 1.19 1.18 1.18 1.17 1.23 1.31 1.38 1.44 1.66 1.77 1.59 1.48 1.50 1.53 1.57
1.31 1.33 1.32 1.33 1.34 1.36 1.37 1.40 1.44 1.48 1.48 1.44 1.40 1.37 1.33 1.30 1.27 1.22 1.20 1.18 1.18 1.23 1.21 1.21 1.26 1.28 1.28 1.25 1.19 1.15 1.15 1.17 1.24 1.31 1.38 1.54 1.73 1.81 1.62 1.48 1.52 1.55 1.59
1.23 1.26 1.26 1.26 1.25 1.25 1.28 1.32 1.36 1.39 1.44 1.45 1.44 1.41 1.38 1.35 1.33 1.28 1.22 1.21 1.21 1.21 1.25 1.22 1.33 1.40 1.31 1.27 1.22 1.19 1.19 1.20 1.26 1.29 1.39 1.60 1.82 1.80 1.60 1.52 1.51 1.55 1.62
1.14 1.16 1.12 1.11 1.10 1.12 1.15 1.17 1.25 1.32 1.35 1.37 1.41 1.42 1.42 1.39 1.35 1.31 1.28 1.25 1.21 1.24 1.28 1.28 1.26 1.23 1.34 1.28 1.24 1.22 1.22 1.23 1.26 1.27 1.38 1.53 1.62 1.63 1.57 1.51 1.53 1.53 1.59
1.05 1.03 0.99 1.00 1.02 1.08 1.12 1.12 1.12 1.17 1.28 1.32 1.33 1.34 1.36 1.38 1.36 1.32 1.29 1.28 1.25 1.23 1.24 1.30 1.28 1.22 1.20 1.24 1.25 1.24 1.23 1.24 1.24 1.28 1.36 1.51 1.53 1.61 1.59 1.50 1.51 1.54 1.54
0.95 0.91 0.87 0.86 0.88 0.90 0.96 0.98 0.99 0.99 1.08 1.13 1.18 1.21 1.27 1.29 1.31 1.30 1.27 1.27 1.29 1.32 1.33 1.29 1.29 1.23 1.18 1.17 1.21 1.23 1.24 1.25 1.24 1.29 1.38 1.43 1.40 1.52 1.57 1.49 1.52 1.51 1.48
0.92 0.85 0.81 0.81 0.82 0.77 0.65 0.59 0.58 0.58 0.63 0.71 0.87 0.98 1.04 1.18 1.23 1.31 1.33 1.31 1.29 1.30 1.29 1.28 1.26 1.22 1.17 1.14 1.14 1.16 1.19 1.22 1.21 1.23 1.31 1.53 1.37 1.40 1.46 1.42 1.50 1.51 1.46
0.84 0.76 0.71 0.71 0.67 0.59 0.57 0.48 0.48 0.44 0.44 0.46 0.49 0.51 0.54 0.75 0.86 1.03 1.25 1.30 1.31 1.27 1.22 1.22 1.24 1.24 1.23 1.18 1.12 1.11 1.12 1.15 1.16 1.17 1.22 1.40 1.41 1.37 1.40 1.33 1.41 1.48 1.48
0.74 0.69 0.66 0.60 0.56 0.52 0.52 0.51 0.52 0.51 0.53 0.53 0.52 0.51 0.52 0.55 0.55 0.59 0.57 0.65 0.80 1.03 1.16 1.17 1.11 1.09 1.14 1.17 1.14 1.09 1.09 1.12 1.13 1.14 1.15 1.26 1.38 1.55 1.42 1.34 1.34 1.43 1.47
0.62 0.57 0.57 0.55 0.49 0.51 0.50 0.53 0.55 0.56 0.55 0.57 0.56 0.52 0.52 0.52 0.56 0.51 0.50 0.44 0.53 0.58 0.71 0.93 1.18 1.25 1.16 1.17 1.17 1.14 1.22 1.28 1.25 1.20 1.14 1.23 1.42 1.34 1.47 1.41 1.35 1.37 1.41
0.57 0.53 0.53 0.51 0.48 0.49 0.50 0.52 0.54 0.58 0.55 0.57 0.56 0.54 0.51 0.52 0.52 0.50 0.46 0.47 0.44 0.43 0.46 0.52 0.59 1.00 1.24 1.29 1.33 1.31 1.32 1.31 1.47 1.33 1.13 1.36 1.41 1.36 1.36 1.36 1.35 1.39 1.37
0.56 0.51 0.51 0.51 0.48 0.48 0.52 0.52 0.55 0.55 0.57 0.55 0.58 0.58 0.53 0.51 0.50 0.47 0.48 0.46 0.47 0.48 0.46 0.46 0.45 0.47 0.62 0.93 1.13 1.18 1.28 1.33 1.34 1.37 1.33 1.26 1.30 1.35 1.34 1.30 1.32 1.37 1.39
0.52 0.51 0.51 0.51 0.49 0.49 0.53 0.54 0.55 0.56 0.54 0.58 0.58 0.59 0.56 0.53 0.51 0.48 0.48 0.51 0.50 0.53 0.51 0.49 0.48 0.46 0.43 0.43 0.62 0.96 1.07 1.14 1.21 1.28 1.34 1.35 1.33 1.33 1.28 1.21 1.28 1.30 1.35
0.52 0.50 0.51 0.49 0.49 0.51 0.51 0.53 0.55 0.56 0.56 0.57 0.56 0.56 0.57 0.55 0.53 0.51 0.50 0.50 0.53 0.55 0.53 0.52 0.52 0.51 0.51 0.51 0.45 0.44 0.63 0.95 1.09 1.26 1.30 1.39 1.36 1.32 1.30 1.24 1.20 1.21 1.32
0.51 0.50 0.47 0.47 0.50 0.50 0.52 0.53 0.54 0.55 0.54 0.53 0.54 0.55 0.55 0.54 0.53 0.52 0.52 0.52 0.54 0.53 0.54 0.56 0.52 0.51 0.49 0.50 0.50 0.53 0.52 0.52 0.69 0.96 1.13 1.25 1.33 1.33 1.35 1.31 1.28 1.24 1.20
0.51 0.49 0.48 0.50 0.50 0.50 0.52 0.53 0.53 0.53 0.52 0.51 0.50 0.52 0.51 0.50 0.51 0.50 0.50 0.52 0.54 0.53 0.55 0.55 0.54 0.49 0.48 0.47 0.45 0.45 0.49 0.54 0.58 0.60 0.71 0.98 1.15 1.24 1.26 1.33 1.38 1.36 1.29
0.53 0.51 0.50 0.51 0.48 0.48 0.50 0.50 0.53 0.53 0.51 0.49 0.50 0.50 0.47 0.49 0.48 0.48 0.49 0.53 0.52 0.51 0.52 0.53 0.51 0.50 0.46 0.46 0.47 0.48 0.48 0.46 0.48 0.54 0.60 0.73 0.79 0.81 1.06 1.21 1.34 1.43 1.51
0.54 0.52 0.50 0.51 0.48 0.48 0.48 0.49 0.50 0.51 0.48 0.49 0.49 0.48 0.49 0.49 0.48 0.48 0.48 0.49 0.50 0.48 0.48 0.49 0.49 0.49 0.48 0.47 0.46 0.44 0.47 0.49 0.48 0.47 0.51 0.56 0.64 0.87 0.95 1.06 1.22 1.34 1.44
0.57 0.52 0.48 0.49 0.47 0.46 0.45 0.43 0.44 0.43 0.45 0.47 0.48 0.48 0.50 0.48 0.48 0.47 0.47 0.47 0.48 0.45 0.45 0.48 0.47 0.45 0.44 0.48 0.43 0.39 0.39 0.45 0.46 0.52 0.61 0.64 0.67 0.80 0.83 0.86 0.99 1.18 1.32
0.55 0.54 0.51 0.49 0.48 0.47 0.45 0.45 0.45 0.45 0.46 0.48 0.51 0.48 0.51 0.48 0.47 0.46 0.46 0.46 0.46 0.43 0.43 0.44 0.45 0.43 0.44 0.49 0.42 0.40 0.31 0.32 0.45 0.51 0.62 0.71 0.83 0.92 0.94 0.99 0.97 1.04 1.21
0.53 0.54 0.51 0.49 0.49 0.49 0.47 0.48 0.47 0.48 0.48 0.49 0.45 0.48 0.49 0.50 0.49 0.48 0.48 0.48 0.48 0.46 0.43 0.45 0.46 0.45 0.40 0.45 0.51 0.46 0.35 0.31 0.38 0.45 0.48 0.61 0.71 0.81 0.85 1.07 1.15 1.06 1.08
0.54 0.55 0.52 0.51 0.49 0.49 0.49 0.48 0.46 0.45 0.43 0.46 0.48 0.51 0.51 0.53 0.51 0.51 0.50 0.50 0.49 0.49 0.46 0.45 0.46 0.45 0.45 0.39 0.46 0.51 0.53 0.51 0.40 0.32 0.45 0.51 0.58 0.63 0.76 0.86 0.96 1.08 1.18
0.57 0.55 0.53 0.52 0.51 0.52 0.51 0.50 0.49 0.47 0.48 0.49 0.49 0.49 0.51 0.51 0.53 0.53 0.54 0.52 0.51 0.48 0.47 0.46 0.45 0.45 0.46 0.44 0.43 0.44 0.47 0.49 0.50 0.44 0.34 0.41 0.51 0.58 0.62 0.67 0.81 0.94 1.02
0.57 0.56 0.54 0.51 0.51 0.51 0.51 0.50 0.47 0.46 0.46 0.46 0.47 0.50 0.52 0.52 0.54 0.54 0.54 0.53 0.51 0.49 0.49 0.49 0.49 0.47 0.46 0.46 0.46 0.45 0.45 0.43 0.43 0.44 0.40 0.41 0.42 0.48 0.60 0.64 0.74 0.79 0.90

GFSSE_prec_pwat_171.txt.gz
Precipitable_Water
1.49 1.55 1.48 1.41 1.40 1.37 1.34 1.31 1.30 1.30 1.31 1.32 1.31 1.26 1.23 1.17 1.13 1.09 1.06 1.06 1.10 1.12 1.20 1.14 1.15 1.17 1.20 1.22 1.25 1.28 1.31 1.31 1.29 1.27 1.28 1.36 1.44 1.49 1.50 1.49 1.47 1.50 1.54
1.62 1.49 1.41 1.38 1.35 1.35 1.34 1.32 1.31 1.31 1.31 1.32 1.33 1.32 1.31 1.26 1.20 1.16 1.12 1.09 1.12 1.14 1.29 1.21 1.17 1.18 1.21 1.21 1.20 1.20 1.22 1.23 1.24 1.24 1.33 1.40 1.51 1.61 1.62 1.51 1.52 1.52 1.52
1.53 1.41 1.35 1.34 1.33 1.33 1.33 1.32 1.32 1.32 1.33 1.31 1.29 1.30 1.30 1.30 1.27 1.21 1.17 1.14 1.18 1.18 1.17 1.30 1.20 1.23 1.25 1.22 1.18 1.15 1.15 1.17 1.19 1.26 1.35 1.40 1.58 1.74 1.68 1.55 1.52 1.52 1.55
1.35 1.32 1.30 1.28 1.28 1.30 1.30 1.31 1.31 1.34 1.36 1.35 1.33 1.32 1.30 1.30 1.30 1.26 1.21 1.16 1.14 1.16 1.20 1.18 1.22 1.33 1.28 1.26 1.18 1.15 1.14 1.15 1.20 1.27 1.30 1.45 1.70 1.76 1.70 1.56 1.53 1.52 1.55
1.29 1.23 1.19 1.18 1.15 1.15 1.18 1.24 1.30 1.32 1.31 1.32 1.33 1.34 1.34 1.34 1.33 1.31 1.27 1.23 1.18 1.16 1.19 1.23 1.19 1.24 1.30 1.34 1.24 1.22 1.20 1.18 1.22 1.26 1.30 1.48 1.57 1.71 1.63 1.60 1.52 1.51 1.54
1.13 1.10 1.09 1.06 1.04 1.07 1.09 1.12 1.18 1.24 1.26 1.26 1.27 1.29 1.33 1.35 1.36 1.35 1.31 1.27 1.24 1.20 1.20 1.24 1.29 1.23 1.17 1.22 1.24 1.24 1.23 1.23 1.23 1.24 1.34 1.44 1.44 1.56 1.54 1.57 1.51 1.53 1.55
0.99 0.98 0.96 0.96 0.98 1.01 1.04 1.06 1.09 1.10 1.14 1.18 1.19 1.20 1.24 1.27 1.30 1.31 1.31 1.31 1.29 1.26 1.26 1.26 1.24 1.25 1.17 1.14 1.16 1.18 1.21 1.22 1.22 1.22 1.31 1.43 1.41 1.44 1.51 1.53 1.48 1.54 1.54
0.85 0.85 0.84 0.85 0.84 0.83 0.84 0.83 0.84 0.87 0.96 0.98 1.05 1.06 1.11 1.18 1.22 1.28 1.27 1.29 1.27 1.28 1.28 1.28 1.28 1.23 1.19 1.14 1.11 1.11 1.14 1.17 1.16 1.15 1.24 1.40 1.58 1.44 1.46 1.48 1.38 1.45 1.51
0.89 0.82 0.81 0.80 0.77 0.70 0.59 0.56 0.53 0.52 0.53 0.54 0.62 0.69 0.82 0.94 1.05 1.06 1.21 1.33 1.30 1.30 1.26 1.25 1.23 1.22 1.20 1.17 1.13 1.08 1.07 1.11 1.10 1.10 1.10 1.27 1.42 1.48 1.51 1.43 1.37 1.35 1.40
0.80 0.74 0.70 0.69 0.62 0.58 0.50 0.48 0.47 0.48 0.49 0.49 0.48 0.48 0.54 0.60 0.67 0.68 0.74 0.82 0.87 0.98 1.15 1.19 1.14 1.11 1.12 1.17 1.18 1.16 1.11 1.08 1.06 1.08 1.08 1.11 1.25 1.39 1.53 1.49 1.45 1.36 1.35
0.72 0.67 0.64 0.57 0.53 0.53 0.48 0.52 0.53 0.52 0.53 0.52 0.50 0.47 0.49 0.53 0.55 0.57 0.57 0.61 0.58 0.60 0.71 0.86 0.98 1.20 1.24 1.14 1.11 1.11 1.13 1.13 1.26 1.25 1.25 1.19 1.17 1.24 1.41 1.57 1.42 1.39 1.36
0.63 0.61 0.58 0.53 0.49 0.49 0.49 0.52 0.53 0.52 0.53 0.54 0.53 0.49 0.49 0.52 0.53 0.52 0.54 0.52 0.50 0.51 0.50 0.52 0.62 0.74 1.08 1.18 1.21 1.27 1.27 1.25 1.27 1.36 1.37 1.20 1.26 1.42 1.43 1.35 1.37 1.34 1.35
0.61 0.57 0.56 0.51 0.49 0.48 0.50 0.51 0.53 0.53 0.53 0.55 0.56 0.53 0.51 0.52 0.48 0.48 0.49 0.49 0.48 0.50 0.48 0.46 0.47 0.52 0.53 0.66 0.87 0.99 1.14 1.22 1.31 1.35 1.40 1.32 1.35 1.38 1.36 1.34 1.32 1.29 1.30
0.57 0.55 0.56 0.52 0.46 0.49 0.51 0.49 0.50 0.52 0.53 0.57 0.58 0.55 0.51 0.51 0.49 0.48 0.47 0.48 0.49 0.50 0.46 0.47 0.46 0.47 0.45 0.47 0.53 0.70 0.88 0.98 1.20 1.39 1.33 1.32 1.32 1.30 1.33 1.42 1.37 1.28 1.25
0.59 0.55 0.53 0.52 0.47 0.48 0.47 0.50 0.54 0.51 0.56 0.59 0.60 0.59 0.54 0.50 0.46 0.47 0.49 0.50 0.49 0.48 0.48 0.46 0.48 0.46 0.46 0.47 0.48 0.49 0.60 0.76 0.91 1.08 1.22 1.23 1.28 1.30 1.42 1.42 1.40 1.35 1.27
0.61 0.54 0.54 0.51 0.50 0.50 0.48 0.50 0.51 0.51 0.56 0.56 0.61 0.59 0.56 0.52 0.46 0.46 0.49 0.52 0.50 0.50 0.50 0.52 0.50 0.46 0.44 0.45 0.44 0.48 0.49 0.49 0.65 0.80 0.89 1.18 1.28 1.31 1.33 1.33 1.40 1.43 1.34
0.60 0.57 0.53 0.51 0.51 0.50 0.49 0.49 0.51 0.51 0.55 0.54 0.58 0.56 0.54 0.52 0.48 0.46 0.49 0.52 0.50 0.51 0.52 0.51 0.50 0.49 0.46 0.45 0.42 0.43 0.44 0.47 0.48 0.48 0.58 0.69 1.06 1.21 1.27 1.34 1.33 1.37 1.40
0.60 0.54 0.51 0.55 0.51 0.50 0.49 0.50 0.50 0.52 0.55 0.55 0.57 0.54 0.51 0.47 0.46 0.43 0.45 0.46 0.48 0.48 0.48 0.47 0.46 0.42 0.40 0.40 0.40 0.41 0.42 0.43 0.42 0.44 0.51 0.58 0.60 0.66 0.96 1.11 1.22 1.26 1.34
0.58 0.55 0.54 0.54 0.50 0.49 0.48 0.50 0.52 0.54 0.53 0.54 0.54 0.52 0.50 0.46 0.45 0.44 0.44 0.44 0.45 0.43 0.43 0.43 0.43 0.42 0.39 0.40 0.40 0.40 0.41 0.40 0.42 0.47 0.47 0.49 0.56 0.67 0.69 0.78 0.90 0.96 1.04
0.59 0.59 0.57 0.55 0.49 0.49 0.50 0.50 0.53 0.51 0.52 0.52 0.51 0.52 0.50 0.47 0.45 0.45 0.43 0.43 0.43 0.39 0.38 0.40 0.38 0.40 0.40 0.41 0.39 0.39 0.37 0.41 0.47 0.50 0.51 0.56 0.59 0.62 0.68 0.72 0.87 1.01 1.04
0.62 0.59 0.56 0.54 0.51 0.50 0.49 0.46 0.47 0.44 0.46 0.50 0.53 0.54 0.51 0.49 0.47 0.46 0.45 0.43 0.42 0.38 0.38 0.40 0.40 0.37 0.36 0.41 0.38 0.34 0.34 0.39 0.46 0.50 0.54 0.58 0.62 0.67 0.69 0.78 0.95 0.97 0.94
0.64 0.62 0.56 0.57 0.54 0.50 0.49 0.48 0.47 0.46 0.50 0.52 0.56 0.54 0.53 0.51 0.49 0.48 0.47 0.46 0.44 0.42 0.40 0.40 0.40 0.38 0.39 0.43 0.38 0.37 0.30 0.31 0.45 0.47 0.50 0.54 0.59 0.65 0.69 0.74 0.83 0.98 1.09
0.63 0.63 0.58 0.55 0.54 0.52 0.52 0.52 0.50 0.51 0.53 0.51 0.52 0.50 0.52 0.53 0.53 0.53 0.52 0.49 0.47 0.46 0.42 0.43 0.44 0.43 0.39 0.43 0.45 0.42 0.35 0.32 0.35 0.41 0.37 0.48 0.53 0.60 0.66 0.72 0.75 0.81 1.00
0.63 0.64 0.59 0.54 0.54 0.54 0.54 0.51 0.48 0.46 0.45 0.48 0.50 0.53 0.54 0.54 0.55 0.56 0.55 0.54 0.51 0.50 0.47 0.46 0.48 0.47 0.46 0.41 0.44 0.47 0.48 0.46 0.36 0.31 0.42 0.40 0.47 0.49 0.56 0.62 0.70 0.72 0.80
0.62 0.64 0.62 0.57 0.54 0.55 0.53 0.52 0.49 0.47 0.48 0.50 0.51 0.52 0.52 0.54 0.55 0.56 0.57 0.56 0.53 0.52 0.50 0.49 0.49 0.48 0.49 0.47 0.45 0.44 0.44 0.44 0.43 0.38 0.30 0.36 0.38 0.42 0.48 0.55 0.59 0.62 0.71
0.62 0.64 0.62 0.56 0.52 0.52 0.52 0.50 0.48 0.46 0.47 0.47 0.48 0.49 0.51 0.55 0.58 0.58 0.57 0.54 0.53 0.50 0.50 0.50 0.50 0.49 0.48 0.48 0.47 0.45 0.43 0.40 0.38 0.36 0.33 0.34 0.36 0.38 0.41 0.45 0.51 0.57 0.63